World > North America > United States > Texas > Merkel   City of Merkel, TX

Merkel, TX Hourly Weather Forecast

Feedback E-mail the Weather

Quick Clicks

Weather World

24 Hour Forecast

Current Conditions - Clear. Temperature is 68°F20°C, dew point 48°F9°C, humidity 49%. Wind direction is NNE at 14 mph23 km/h with visibility of 10 mi16 km. Barometric pressure is 30 in1015 mb.
Tonight - Mostly clear this evening, then becoming partly cloudy. Much cooler with lows around 50. Northeast winds 15 to 20 mph... Full Forecast
Friday - Partly sunny. Much cooler with highs in the mid 60s. Northeast winds 10 to 15 mph... Full Forecast

Merkel Hourly Weather

24 Hour Weather Scroll
Thu, Apr 18
9:00 pm
Thu, Apr 18
10:00 pm
Thu, Apr 18
11:00 pm
Fri, Apr 19
Midnight
Fri, Apr 19
1:00 am
Fri, Apr 19
2:00 am
Fri, Apr 19
3:00 am
Fri, Apr 19
4:00 am
Fri, Apr 19
5:00 am
Fri, Apr 19
6:00 am
Fri, Apr 19
7:00 am
Fri, Apr 19
8:00 am
Fri, Apr 19
9:00 am
Fri, Apr 19
10:00 am
Fri, Apr 19
11:00 am
Fri, Apr 19
Noon
Fri, Apr 19
1:00 pm
Fri, Apr 19
2:00 pm
Fri, Apr 19
3:00 pm
Fri, Apr 19
4:00 pm
Fri, Apr 19
5:00 pm
Fri, Apr 19
6:00 pm
Fri, Apr 19
7:00 pm
Fri, Apr 19
8:00 pm
ClearClear Clear Clear Clear Clear Clear Partly Cloudy Partly Cloudy Partly Cloudy Partly Cloudy SunnySunnySunnyPartly Cloudy Partly Cloudy SunnySunnySunnySunnyPartly Cloudy Partly Cloudy Partly Cloudy Partly Cloudy
Clear Clear Clear Clear Clear Clear Clear Partly Cloudy Partly Cloudy Partly Cloudy Partly Cloudy Sunny Sunny Sunny Partly Cloudy Partly Cloudy Sunny Sunny Sunny Sunny Partly Cloudy Partly Cloudy Partly Cloudy Partly Cloudy
66°F19°C 62°F17°C 59°F15°C 56°F13°C 54°F12°C 52°F11°C 50°F10°C 49°F10°C 49°F9°C 48°F9°C 48°F9°C 49°F10°C 52°F11°C 55°F13°C 59°F15°C 63°F17°C 66°F19°C 69°F20°C 71°F22°C 72°F22°C 73°F23°C 72°F22°C 70°F21°C 67°F19°C
45°F
7°C
45°F
7°C
45°F
7°C
46°F
8°C
46°F
8°C
45°F
7°C
44°F
7°C
44°F
7°C
43°F
6°C
43°F
6°C
42°F
5°C
41°F
5°C
40°F
4°C
40°F
4°C
40°F
5°C
41°F
5°C
42°F
6°C
44°F
7°C
45°F
7°C
46°F
8°C
47°F
8°C
48°F
9°C
49°F
9°C
49°F
9°C
30.06 in
1018 mb
30.03 in
1017 mb
30.06 in
1018 mb
30.12 in
1020 mb
30.12 in
1020 mb
30.12 in
1020 mb
30.12 in
1020 mb
30.12 in
1020 mb
30.15 in
1021 mb
30.15 in
1021 mb
30.15 in
1021 mb
30.18 in
1022 mb
30.18 in
1022 mb
30.18 in
1022 mb
30.18 in
1022 mb
30.15 in
1021 mb
30.12 in
1020 mb
30.06 in
1018 mb
30.03 in
1017 mb
30 in
1016 mb
30 in
1016 mb
29.97 in
1015 mb
30 in
1016 mb
30 in
1016 mb
52%56%61%70%75%78%81%82%83%80%80%75%66%57%50%45%42%40%39%38%39%40%45%51%
NNENEENEENENENNENNENNENNENNENNENNENNENENENENENEENEENEEEEE
11 mph
17 km/h
19 mph
30 km/h
18 mph
30 km/h
18 mph
29 km/h
12 mph
19 km/h
12 mph
19 km/h
12 mph
20 km/h
13 mph
20 km/h
12 mph
19 km/h
13 mph
22 km/h
13 mph
20 km/h
15 mph
24 km/h
16 mph
26 km/h
15 mph
24 km/h
14 mph
23 km/h
12 mph
19 km/h
12 mph
19 km/h
11 mph
17 km/h
11 mph
18 km/h
11 mph
17 km/h
10 mph
16 km/h
10 mph
15 km/h
11 mph
18 km/h
11 mph
18 km/h
0%0%0%0%0%0%0%0%0%0%0%0%0%0%0%0%0%0%0%0%0%0%0%0%
10 mi
16 km
6 mi
10 km
6 mi
10 km
6 mi
10 km
6 mi
10 km
6 mi
10 km
6 mi
10 km
6 mi
10 km
6 mi
10 km
6 mi
10 km
6 mi
10 km
6 mi
10 km
6 mi
10 km
6 mi
10 km
6 mi
10 km
6 mi
10 km
6 mi
10 km
6 mi
10 km
6 mi
10 km
6 mi
10 km
6 mi
10 km
6 mi
10 km
6 mi
10 km
6 mi
10 km

Day/Time
Weather
Condition
Temperature
Dew Point
Pressure
Humidity
Wind Direction
Wind Speed
Prob Precip %
Visibility
POP = Probability of Precipitation. ** Indicates missing data/values from KDYS model statistics.

Trending Headlines

Trending Entertainment Headlines

Merkel Radar Loop

Use the map search tool if you want to place a location marker on the radar map...

48 Hour API Forecast

Prob Precip % = Probability of Precipitation.

Merkel 36 Hour Forecast

POP = Probability of Precipitation. ** Indicates missing data/values from model statistics.

E-mail the Merkel Weather Forecast

Voice your opinion or tell us about page issues...

Merkel TX Weather - 10:30 pm

What are people saying?

Contact Us